Dashboard

GC4VWHC - VVV-Laakdal7

by VVV-Laakdal

published: Mon, 13 Jan 2014 12:41:52 pm

Certitude Solution



Puzzle stats
1426 Woo-Hoo!
267 D'Oh!
Latest activity:
Wed, 28 Dec 2016
Note that some of those attempts may have been anonymous.



You can subscribe to an RSS feed for:
 this puzzle
 VVV-Laakdal's puzzles
 puzzles in N51 E004 quadrangle
 puzzles in Antwerpen
 all puzzles

Your geocaching name is unknown, please sign in to identify yourself. How does it work?

Puzzle solvers, you can certify your solution here:
Show solution 
Show attempts 

(exact coordinates required)
  Stay anonymous

Certified solvers

RankUserTime (Brussels, Europe)
1.DuckyboyMon, 13 Jan 2014 12:56:33 pm
2.badmintonnersMon, 13 Jan 2014 1:15:49 pm
3.tinrafMon, 13 Jan 2014 1:53:13 pm
4.waldogMon, 13 Jan 2014 2:44:45 pm
5.GeroMinosMon, 13 Jan 2014 4:34:04 pm
6.Cocquyt IdesMon, 13 Jan 2014 5:12:59 pm
7.pietSchaftMon, 13 Jan 2014 5:38:17 pm
8.BelgiumJeepersMon, 13 Jan 2014 5:46:30 pm
9.PenJMon, 13 Jan 2014 5:59:21 pm
10.De 5 LinievosMon, 13 Jan 2014 6:06:45 pm
11.JambofredjeMon, 13 Jan 2014 7:18:03 pm
12.Familie HendrikxMon, 13 Jan 2014 7:22:59 pm
13.exkramMon, 13 Jan 2014 7:46:31 pm
14.ErannMon, 13 Jan 2014 8:21:37 pm
15.dagger38Mon, 13 Jan 2014 8:25:37 pm
16.The Usual SuspectzMon, 13 Jan 2014 8:29:28 pm
17.de van nassautjesMon, 13 Jan 2014 8:38:16 pm
18.the-bikersMon, 13 Jan 2014 9:05:58 pm
19.rommarMon, 13 Jan 2014 9:41:54 pm
20.Roberto 01Mon, 13 Jan 2014 9:53:19 pm
21.Chupke&CoMon, 13 Jan 2014 9:58:56 pm
22.stunkelMon, 13 Jan 2014 10:14:45 pm
23.aarciaMon, 13 Jan 2014 10:20:29 pm
24.gabberjasperMon, 13 Jan 2014 10:27:14 pm
25.ZwuzzeMon, 13 Jan 2014 10:32:06 pm
26.1TEAMMon, 13 Jan 2014 10:56:31 pm
27.Ricky50Mon, 13 Jan 2014 10:57:45 pm
28.Gunter67Mon, 13 Jan 2014 11:09:52 pm
29.nickipelMon, 13 Jan 2014 11:11:48 pm
30.Fisty3Mon, 13 Jan 2014 11:26:48 pm
31.RUYATue, 14 Jan 2014 12:08:21 am
32.KeekjeTue, 14 Jan 2014 12:08:42 am
33.NylimbTue, 14 Jan 2014 3:37:24 am
34.Fox64Tue, 14 Jan 2014 8:54:17 am
35.lankatrasTue, 14 Jan 2014 9:37:32 am
36.Cableguy666Tue, 14 Jan 2014 10:00:05 am
37.Doogie.beTue, 14 Jan 2014 11:17:57 am
38.x-eliminatorTue, 14 Jan 2014 12:32:35 pm
39.tesslooTue, 14 Jan 2014 12:42:47 pm
40.Team GeweiTue, 14 Jan 2014 2:36:07 pm
41.Boris the 3Tue, 14 Jan 2014 3:14:27 pm
42.The BatTue, 14 Jan 2014 4:32:30 pm
43.GOTCHAYOSETue, 14 Jan 2014 4:41:49 pm
44.ferrojojoTue, 14 Jan 2014 6:04:49 pm
45.Wini 101Tue, 14 Jan 2014 6:40:15 pm
46.Geronimo1848Tue, 14 Jan 2014 7:16:32 pm
47.palesTue, 14 Jan 2014 7:17:22 pm
48.jeanke53Tue, 14 Jan 2014 7:18:28 pm
49.sparadrap + tibecomTue, 14 Jan 2014 7:25:22 pm
50.briezekeTue, 14 Jan 2014 7:28:13 pm
51.tootwoopTue, 14 Jan 2014 8:06:45 pm
52.de.trompetterTue, 14 Jan 2014 8:08:04 pm
53.rudy86Tue, 14 Jan 2014 8:17:16 pm
54.MycenaTue, 14 Jan 2014 8:25:56 pm
55.JOTHBTue, 14 Jan 2014 8:28:40 pm
56.cactusboy99Tue, 14 Jan 2014 8:40:57 pm
57.GiniroverTue, 14 Jan 2014 8:45:30 pm
58.spiritsTue, 14 Jan 2014 9:04:28 pm
59.MiezekeTue, 14 Jan 2014 9:05:38 pm
60.DwiggerTue, 14 Jan 2014 9:34:01 pm
61.franske2Tue, 14 Jan 2014 10:05:44 pm
62.De LeenTue, 14 Jan 2014 10:49:07 pm
63.garfunkel.beTue, 14 Jan 2014 11:14:55 pm
64.SnuffelkeTue, 14 Jan 2014 11:26:04 pm
65.denjakkeWed, 15 Jan 2014 2:06:18 am
66.brestWed, 15 Jan 2014 4:41:44 am
67.GAACOWed, 15 Jan 2014 5:13:07 am
68.KaRuKoWed, 15 Jan 2014 11:29:58 am
69.amslouisWed, 15 Jan 2014 12:28:27 pm
70.de achterlichtjesWed, 15 Jan 2014 1:15:49 pm
71.ChristyvhWed, 15 Jan 2014 1:36:56 pm
72.KLUPPELWed, 15 Jan 2014 2:54:48 pm
73.rabbitsWed, 15 Jan 2014 5:12:02 pm
74.JoanyoWed, 15 Jan 2014 5:45:30 pm
75.HarristideWed, 15 Jan 2014 6:15:40 pm
76.AlcecWed, 15 Jan 2014 6:36:40 pm
77.jv11096Wed, 15 Jan 2014 7:20:03 pm
78.A.A.A.kesWed, 15 Jan 2014 7:48:36 pm
79.SteenezelWed, 15 Jan 2014 7:58:50 pm
80.mercator80Wed, 15 Jan 2014 8:54:55 pm
81.TauspieWed, 15 Jan 2014 9:18:50 pm
82.petmaryWed, 15 Jan 2014 9:24:27 pm
83.immerthoeveWed, 15 Jan 2014 9:48:29 pm
84.NenjitsWed, 15 Jan 2014 10:29:18 pm
85.jos4711Wed, 15 Jan 2014 10:45:25 pm
86.jackie vandenberkWed, 15 Jan 2014 10:59:39 pm
87.tfxerWed, 15 Jan 2014 11:10:44 pm
88.bobo bonbonThu, 16 Jan 2014 3:13:40 am
89.Geronimo62Thu, 16 Jan 2014 5:13:12 am
90.TekkelThu, 16 Jan 2014 9:51:21 am
91.mb815Thu, 16 Jan 2014 1:47:47 pm
92.wout147Thu, 16 Jan 2014 3:36:15 pm
93.VindenPuntNLThu, 16 Jan 2014 4:19:28 pm
94.Joe UltraThu, 16 Jan 2014 4:52:54 pm
95.SeetieThu, 16 Jan 2014 5:17:18 pm
96.machpatThu, 16 Jan 2014 6:37:38 pm
97.WaaslanderThu, 16 Jan 2014 7:15:53 pm
98.zilumopThu, 16 Jan 2014 7:23:36 pm
99.xedionThu, 16 Jan 2014 7:32:17 pm
100.wit-gele-+Thu, 16 Jan 2014 8:06:57 pm
101.Onslow²Thu, 16 Jan 2014 8:19:43 pm
102.jurgelleThu, 16 Jan 2014 8:35:09 pm
103.BalthazaarThu, 16 Jan 2014 9:41:28 pm
104.JanTurboThu, 16 Jan 2014 11:04:58 pm
105.Geo-shuttleFri, 17 Jan 2014 12:54:19 am
106.purpowFri, 17 Jan 2014 2:51:50 am
107.JP&CDBFri, 17 Jan 2014 10:10:09 am
108.Patkrimson2Fri, 17 Jan 2014 10:25:57 am
109.heksemie anirca62Fri, 17 Jan 2014 11:40:01 am
110.Hebebe28Fri, 17 Jan 2014 11:53:56 am
111.YellowBlackArmyFri, 17 Jan 2014 1:17:12 pm
112.TheDutchLetterboxersFri, 17 Jan 2014 4:15:33 pm
113.AnnicksjeFri, 17 Jan 2014 5:37:58 pm
114.janvandevisFri, 17 Jan 2014 6:37:02 pm
115.hincapieFri, 17 Jan 2014 7:31:31 pm
116.Kel&StefFri, 17 Jan 2014 8:33:27 pm
117.Gooz74Fri, 17 Jan 2014 8:35:02 pm
118.tinobootFri, 17 Jan 2014 9:45:41 pm
119.peganordFri, 17 Jan 2014 10:38:06 pm
120.Mosterdpot&coFri, 17 Jan 2014 10:56:24 pm
121.AnthousaFri, 17 Jan 2014 10:58:12 pm
122.Team VerostefFri, 17 Jan 2014 11:02:19 pm
123.L33NSat, 18 Jan 2014 10:47:32 am
124.stafkoartjeSat, 18 Jan 2014 12:48:51 pm
125.bahetiSat, 18 Jan 2014 7:46:12 pm
126.Bruges21Sat, 18 Jan 2014 8:07:52 pm
127.springerkesSat, 18 Jan 2014 8:09:05 pm
128.S-n-PSat, 18 Jan 2014 8:55:52 pm
129.divemoSat, 18 Jan 2014 10:18:36 pm
130.yurrie-currieSat, 18 Jan 2014 10:57:22 pm
131.NaturepointSun, 19 Jan 2014 12:24:32 am
132.omaenopaSun, 19 Jan 2014 11:21:55 am
133.kurtwuytsSun, 19 Jan 2014 2:19:14 pm
134.JanHSun, 19 Jan 2014 4:34:14 pm
135.Mimhs.grSun, 19 Jan 2014 6:56:55 pm
136.Sankofa73Sun, 19 Jan 2014 9:14:50 pm
137.sukySun, 19 Jan 2014 9:56:11 pm
138.smeugskeSun, 19 Jan 2014 10:23:26 pm
139.BierbroederSun, 19 Jan 2014 11:41:52 pm
140.the 4 beesMon, 20 Jan 2014 10:27:20 am
141.GNB71Mon, 20 Jan 2014 1:15:24 pm
142.Dolende DingoMon, 20 Jan 2014 2:36:54 pm
143.geosideMon, 20 Jan 2014 2:45:32 pm
144.robinhoedjeMon, 20 Jan 2014 3:20:13 pm
145.geojorenMon, 20 Jan 2014 3:52:02 pm
146.jbbobkeMon, 20 Jan 2014 4:46:45 pm
147.brumilhaagMon, 20 Jan 2014 7:54:13 pm
148.TomanelineMon, 20 Jan 2014 8:53:06 pm
149.WibokeMon, 20 Jan 2014 10:56:58 pm
150.nietjeTue, 21 Jan 2014 12:10:31 am
151.Team BOJO NRWTue, 21 Jan 2014 11:14:17 am
152.on4bamTue, 21 Jan 2014 12:53:42 pm
153.Katrien86Tue, 21 Jan 2014 2:51:45 pm
154.HEYTSETue, 21 Jan 2014 4:28:37 pm
155.Brain and PinkyTue, 21 Jan 2014 6:30:53 pm
156.JD85Tue, 21 Jan 2014 9:17:12 pm
157.ceuvanTue, 21 Jan 2014 10:11:28 pm
158.malidaWed, 22 Jan 2014 12:09:58 pm
159.Atos4306Wed, 22 Jan 2014 2:07:15 pm
160.lauer10Wed, 22 Jan 2014 4:52:16 pm
161.lljbbWed, 22 Jan 2014 8:09:22 pm
162.Daems teamWed, 22 Jan 2014 10:33:28 pm
163.joske geronThu, 23 Jan 2014 6:27:33 pm
164.eddyriaThu, 23 Jan 2014 7:36:43 pm
165.well-of-soulsFri, 24 Jan 2014 10:51:34 am
166.TanyaBrigittaDodge64Fri, 24 Jan 2014 2:14:12 pm
167.jupke007Fri, 24 Jan 2014 3:59:40 pm
168.GlanaFri, 24 Jan 2014 8:11:51 pm
169.bosamigoFri, 24 Jan 2014 9:08:36 pm
170.suske8Fri, 24 Jan 2014 11:12:14 pm
171.Gentse HavikenSat, 25 Jan 2014 3:19:38 pm
172.GitaristSat, 25 Jan 2014 5:06:36 pm
173.RilderaSat, 25 Jan 2014 8:20:31 pm
174.de bosvarkensSat, 25 Jan 2014 10:59:11 pm
175.EsteRietSun, 26 Jan 2014 2:30:27 pm
176.BèrBreeSun, 26 Jan 2014 3:38:20 pm
177.GreetLucSun, 26 Jan 2014 5:32:46 pm
178.DAN119Sun, 26 Jan 2014 7:05:18 pm
179.XistanceSun, 26 Jan 2014 8:44:09 pm
180.sennekeSun, 26 Jan 2014 8:59:51 pm
181.fourtimesfourSun, 26 Jan 2014 9:40:14 pm
182.ZommetjesSun, 26 Jan 2014 10:17:06 pm
183.KnokkertjeSun, 26 Jan 2014 11:44:43 pm
184.team gebrookMon, 27 Jan 2014 2:53:55 pm
185.Stylo & JoskeMon, 27 Jan 2014 4:55:17 pm
186.snobe2002Tue, 28 Jan 2014 10:48:09 am
187.kr017697Tue, 28 Jan 2014 6:05:41 pm
188.biermanTue, 28 Jan 2014 7:10:47 pm
189.quintusbTue, 28 Jan 2014 8:22:03 pm
190.luc-ingaTue, 28 Jan 2014 9:14:55 pm
191.D.T.M.Wed, 29 Jan 2014 2:04:52 pm
192.dieselpompWed, 29 Jan 2014 7:16:39 pm
193.dr.jekyl end ms.hydeWed, 29 Jan 2014 8:23:21 pm
194.Boldy47Wed, 29 Jan 2014 9:42:40 pm
195.wim.carryWed, 29 Jan 2014 10:25:27 pm
196.le monocleThu, 30 Jan 2014 2:06:47 pm
197.stanskeThu, 30 Jan 2014 2:52:38 pm
198.wodrelroThu, 30 Jan 2014 8:17:46 pm
199.Sjeik BurgieThu, 30 Jan 2014 11:25:55 pm
200.DIDICARFri, 31 Jan 2014 8:50:50 am
201.DiWiDiMaPaFri, 31 Jan 2014 9:36:46 am
202.SuperBBFri, 31 Jan 2014 12:26:22 pm
203.KareltjeSat, 1 Feb 2014 10:18:44 am
204.Scaramouche1908Sat, 1 Feb 2014 12:34:31 pm
205.BetsoSat, 1 Feb 2014 3:59:53 pm
206.3piranja'sSat, 1 Feb 2014 5:31:36 pm
207.vanthofSun, 2 Feb 2014 11:06:38 am
208.DDVVJD11Sun, 2 Feb 2014 8:10:25 pm
209.Iron SixMon, 3 Feb 2014 8:40:49 am
210.stefgeoMon, 3 Feb 2014 6:14:47 pm
211.lencomanMon, 3 Feb 2014 7:23:59 pm
212.peggy&johanMon, 3 Feb 2014 8:58:20 pm
213.DnA-peltMon, 3 Feb 2014 9:07:35 pm
214.AkerhaTue, 4 Feb 2014 4:07:29 pm
215.DolomitiTue, 4 Feb 2014 7:13:05 pm
216.MacLouisTue, 4 Feb 2014 7:31:46 pm
217.WooD JrTue, 4 Feb 2014 9:11:17 pm
218.BaerliliTue, 4 Feb 2014 9:56:56 pm
219.Den DrogeWed, 5 Feb 2014 2:24:23 pm
220.reygerWed, 5 Feb 2014 5:22:45 pm
221.Laroy1Wed, 5 Feb 2014 8:22:48 pm
222.zandbuddiesThu, 6 Feb 2014 7:54:52 am
223.Basta18Thu, 6 Feb 2014 9:09:52 am
224.RechmireThu, 6 Feb 2014 5:00:42 pm
225.DreiDFri, 7 Feb 2014 11:41:09 am
226.dertien_elfjeFri, 7 Feb 2014 3:03:02 pm
227.gar+Sat, 8 Feb 2014 9:00:15 am
228.Het_fm-duoSun, 9 Feb 2014 11:25:22 am
229.JeanelveSun, 9 Feb 2014 12:23:27 pm
230.djdaanSun, 9 Feb 2014 2:11:10 pm
231.-S@m-Sun, 9 Feb 2014 2:50:39 pm
232.DetSniper1C/1GrSun, 9 Feb 2014 5:51:47 pm
233.langvangemertSun, 9 Feb 2014 9:07:27 pm
234.vlinder74Mon, 10 Feb 2014 2:01:21 pm
235.J_n_KMon, 10 Feb 2014 5:04:30 pm
236.joris1984Mon, 10 Feb 2014 5:26:14 pm
237.PunktejägerMon, 10 Feb 2014 8:50:53 pm
238.WandelKuubMon, 10 Feb 2014 10:47:46 pm
239.nash1963Tue, 11 Feb 2014 7:20:22 am
240.Dr Nick AsTue, 11 Feb 2014 8:44:18 am
241.dexageTue, 11 Feb 2014 5:09:24 pm
242.familiemaasTue, 11 Feb 2014 10:24:05 pm
243.Vuck & DzjekkelWed, 12 Feb 2014 7:17:27 pm
244.KRCGenkieThu, 13 Feb 2014 9:20:00 am
245.qltelThu, 13 Feb 2014 5:46:36 pm
246.Ellen_7Thu, 13 Feb 2014 9:55:50 pm
247.doorienFri, 14 Feb 2014 6:34:30 pm
248.jorokaFri, 14 Feb 2014 11:14:26 pm
249.voppersSat, 15 Feb 2014 12:24:47 pm
250.Anja-PeterSat, 15 Feb 2014 7:20:34 pm
251.tufferkesMon, 17 Feb 2014 7:58:07 pm
252.VogelvluchtenTue, 18 Feb 2014 8:59:56 pm
253.BeTh52Wed, 19 Feb 2014 10:55:46 pm
254.koetje1977Thu, 20 Feb 2014 10:39:25 am
255.liliremThu, 20 Feb 2014 1:57:13 pm
256.the 2 hobbitsFri, 21 Feb 2014 3:37:10 pm
257.jeannouFri, 21 Feb 2014 7:58:35 pm
258.VOSPAMASat, 22 Feb 2014 8:11:13 pm
259.Luna49Sun, 23 Feb 2014 2:16:50 pm
260.ernasprengerMon, 24 Feb 2014 4:36:05 am
261.de2berkjesMon, 24 Feb 2014 2:51:32 pm
262.STONNEMon, 24 Feb 2014 8:10:07 pm
263.pompidoeTue, 25 Feb 2014 3:08:07 pm
264.Geostrumpf_TaffyWed, 26 Feb 2014 10:49:12 pm
265.micsepThu, 27 Feb 2014 3:22:45 pm
266.rikskevanfikskeFri, 28 Feb 2014 12:39:14 am
267.Jim morrison 2Fri, 28 Feb 2014 2:50:45 am
268.the groundhopperSat, 1 Mar 2014 1:10:33 am
269.Funny Bunny teamSat, 1 Mar 2014 6:26:56 pm
270.BeardiedogSat, 1 Mar 2014 9:04:34 pm
271.de jokkeSat, 1 Mar 2014 9:09:42 pm
272.kiekerjanSun, 2 Mar 2014 7:51:31 pm
273.HlubTue, 4 Mar 2014 7:53:12 am
274.EluniteThu, 6 Mar 2014 8:07:22 pm
275.tKlavertjeFri, 7 Mar 2014 7:56:37 pm
276.kazyFri, 7 Mar 2014 10:09:15 pm
277.LanceG07Sat, 8 Mar 2014 3:16:52 pm
278.Felis LeoSat, 8 Mar 2014 6:46:36 pm
279.Evy&DavySun, 9 Mar 2014 7:19:47 am
280.langevanstalSun, 9 Mar 2014 11:36:31 pm
281.BotsballekeMon, 10 Mar 2014 1:14:25 pm
282.Rabbitt HillMon, 10 Mar 2014 7:24:45 pm
283.jessica.dierensWed, 12 Mar 2014 6:02:36 pm
284.PQ.Wed, 12 Mar 2014 8:30:32 pm
285.BraBonWed, 12 Mar 2014 8:49:19 pm
286.dalwalkersFri, 14 Mar 2014 6:37:48 pm
287.Team LoewenjaegerFri, 14 Mar 2014 8:40:53 pm
288.VolletjesSat, 15 Mar 2014 12:44:46 am
289.wil&petSat, 15 Mar 2014 4:53:02 pm
290.grassprietekeSat, 15 Mar 2014 10:47:33 pm
291.Alex 1Tue, 18 Mar 2014 10:11:21 am
292.scholtismanTue, 18 Mar 2014 10:14:56 am
293.Griml0rdTue, 18 Mar 2014 11:16:58 pm
294.EburonianWed, 19 Mar 2014 2:04:58 pm
295.martini1999Wed, 19 Mar 2014 8:29:22 pm
296.NespekesWed, 19 Mar 2014 9:29:39 pm
297.Barco'kesThu, 20 Mar 2014 9:12:40 am
298.TeamspiritThu, 20 Mar 2014 3:43:34 pm
299.BellomFri, 21 Mar 2014 3:44:56 pm
300.DavooFri, 21 Mar 2014 8:27:41 pm
301.tommeke47Sat, 22 Mar 2014 12:08:38 am
302.Team Blackfox3Sat, 22 Mar 2014 8:16:36 pm
303.Team Rocky BeachSun, 23 Mar 2014 2:15:03 pm
304.SieMichSun, 23 Mar 2014 2:25:32 pm
305.PijamaSun, 23 Mar 2014 8:03:17 pm
306.De SnuffelaarsMon, 24 Mar 2014 12:22:39 am
307.Urco28Mon, 24 Mar 2014 11:26:03 am
308.RammelaarsWed, 26 Mar 2014 8:07:55 am
309.niebobWed, 26 Mar 2014 11:16:11 am
310.roelenannekeWed, 26 Mar 2014 5:18:32 pm
311.NoWorryManSat, 29 Mar 2014 8:15:06 am
312.theraenwilbertSun, 30 Mar 2014 9:59:34 pm
313.claudlibMon, 31 Mar 2014 12:40:13 pm
314.Ellen65Mon, 31 Mar 2014 6:36:08 pm
315.WolfmanOBThu, 3 Apr 2014 10:56:02 pm
316.bostrol64Fri, 4 Apr 2014 1:34:44 am
317.willemskesFri, 4 Apr 2014 9:47:24 am
318.Ducky´sFri, 4 Apr 2014 8:38:45 pm
319.jan,Sat, 5 Apr 2014 12:07:43 pm
320.FlowiesTue, 8 Apr 2014 9:10:04 am
321.KoouyeTue, 8 Apr 2014 11:27:30 am
322.labelflashTue, 8 Apr 2014 8:11:23 pm
323.gunther_de_laetThu, 10 Apr 2014 8:41:14 pm
324.WijoFri, 11 Apr 2014 7:37:16 pm
325.JurgenKSat, 12 Apr 2014 7:13:32 pm
326.MarludSun, 13 Apr 2014 9:59:43 am
327.cornekMon, 14 Apr 2014 1:25:02 pm
328.fade2bladeMon, 14 Apr 2014 10:19:52 pm
329.LukePukeTue, 15 Apr 2014 9:34:11 am
330.DeSchakeltjesTue, 15 Apr 2014 10:07:07 am
331.de beestjesTue, 15 Apr 2014 9:47:42 pm
332.jerxjacWed, 16 Apr 2014 7:21:04 am
333.KimielWed, 16 Apr 2014 9:28:19 pm
334.annhenThu, 17 Apr 2014 8:07:11 pm
335.berepoesThu, 17 Apr 2014 10:14:20 pm
336.EgypteFri, 18 Apr 2014 6:21:52 pm
337.jocosiFri, 18 Apr 2014 11:05:30 pm
338.Dj FvMSat, 19 Apr 2014 8:20:28 pm
339.DréVanTenkePolaSun, 20 Apr 2014 2:40:52 pm
340.DappersteMon, 21 Apr 2014 12:43:38 am
341.krostiMon, 21 Apr 2014 8:02:47 am
342.galloway1Mon, 21 Apr 2014 9:15:43 pm
343.MikaïTue, 22 Apr 2014 9:26:49 pm
344.tiguy000Wed, 23 Apr 2014 4:22:29 pm
345.Jet&LynnWed, 23 Apr 2014 5:20:17 pm
346.ThAnBoThu, 24 Apr 2014 4:56:05 pm
347.WhiteWolfsFri, 25 Apr 2014 12:22:50 pm
348.De Snoopy'sFri, 25 Apr 2014 6:28:42 pm
349.k100dFri, 25 Apr 2014 11:07:27 pm
350.Tree+SerrSat, 26 Apr 2014 1:59:34 pm
351.junior504Sun, 27 Apr 2014 9:44:00 am
352.RiensSun, 27 Apr 2014 11:01:24 am
353.de genietertjesSun, 27 Apr 2014 4:52:38 pm
354.BrevechtSun, 27 Apr 2014 7:15:30 pm
355.RoedemSun, 27 Apr 2014 9:40:13 pm
356.Grokky GroksonMon, 28 Apr 2014 9:17:47 pm
357.DecootjeTue, 29 Apr 2014 4:04:03 pm
358.nostradadaWed, 30 Apr 2014 12:39:23 pm
359.pakwegzesWed, 30 Apr 2014 3:55:17 pm
360.Team A&TWed, 30 Apr 2014 8:06:30 pm
361.SteffesofnuThu, 1 May 2014 3:03:18 pm
362.lunolunoFri, 2 May 2014 1:04:59 pm
363.HAPJ(e)Sat, 3 May 2014 5:57:55 pm
364.digujobraSat, 3 May 2014 9:16:15 pm
365.mlsn1975Mon, 5 May 2014 5:00:03 pm
366.DYINWed, 7 May 2014 2:44:46 pm
367.marc en lutWed, 7 May 2014 6:44:08 pm
368.RuNoGAThu, 8 May 2014 4:31:28 pm
369.zonnebaarsThu, 8 May 2014 11:50:08 pm
370.ReaperX_BEFri, 9 May 2014 4:40:37 pm
371.vandermmeerSat, 10 May 2014 2:21:57 pm
372.Marpat5957Sun, 11 May 2014 4:49:36 pm
373.flupie007Mon, 12 May 2014 11:44:00 am
374.tsjaskeTue, 13 May 2014 6:36:42 pm
375.CazptTue, 13 May 2014 11:25:24 pm
376.toedeledokieFri, 16 May 2014 6:45:39 pm
377.MoeliTecMon, 19 May 2014 4:23:33 pm
378.KoidreamTue, 20 May 2014 12:24:07 pm
379.de haantjesTue, 20 May 2014 10:27:12 pm
380.NAPI :)Tue, 20 May 2014 10:33:06 pm
381.AsdonckWed, 21 May 2014 5:35:10 pm
382.dev46Fri, 23 May 2014 10:28:08 am
383.Spinner!Fri, 23 May 2014 4:14:19 pm
384.poemie2005Fri, 23 May 2014 4:27:33 pm
385.De_HommelsFri, 23 May 2014 6:40:36 pm
386.gambleselgaeFri, 23 May 2014 9:42:08 pm
387.Old DavisSat, 24 May 2014 10:49:36 am
388.TEAM MOSCORSat, 24 May 2014 3:15:19 pm
389.tempovisionSat, 24 May 2014 9:14:32 pm
390.ontdekkersMon, 26 May 2014 5:22:44 am
391.DenDulleFri, 30 May 2014 1:43:17 pm
392.UnderkofferSat, 31 May 2014 5:08:06 pm
393.The Happy'sSat, 31 May 2014 10:00:20 pm
394.maneblusser105Tue, 3 Jun 2014 11:50:42 am
395.jojo's03Wed, 4 Jun 2014 9:54:13 pm
396.wewalktoThu, 5 Jun 2014 10:32:06 pm
397.de_fretSat, 7 Jun 2014 2:25:59 pm
398.Anjer291Wed, 11 Jun 2014 8:20:07 pm
399.vasco81Thu, 12 Jun 2014 8:30:10 pm
400.JonadiSat, 14 Jun 2014 10:35:10 am
401.mirdjSat, 14 Jun 2014 4:48:16 pm
402.wevertjesWed, 18 Jun 2014 9:53:43 pm
403.sweetjoeWed, 18 Jun 2014 10:21:51 pm
404.notenicMon, 23 Jun 2014 9:30:45 am
405.VlevkeSat, 28 Jun 2014 11:44:35 am
406.StimpyktTue, 1 Jul 2014 12:24:38 am
407.Oetie2Sat, 5 Jul 2014 8:14:53 pm
408.Op zoek naarTue, 8 Jul 2014 3:21:58 pm
409.larko zoekt meeTue, 8 Jul 2014 5:26:33 pm
410.ADIMUSMon, 14 Jul 2014 2:04:02 pm
411.kuipers.aTue, 22 Jul 2014 5:06:36 pm
412.KesannyTue, 22 Jul 2014 7:08:44 pm
413.bhabetsWed, 23 Jul 2014 10:52:28 am
414.Chake&YvesWed, 23 Jul 2014 9:58:16 pm
415.rednorbSat, 26 Jul 2014 4:59:06 pm
416.abdij-jongenSun, 27 Jul 2014 11:01:01 am
417.karamigSun, 27 Jul 2014 6:18:51 pm
418.leroy405Mon, 28 Jul 2014 3:47:33 pm
419.lucvosTue, 29 Jul 2014 3:29:46 pm
420.daniella&julienWed, 30 Jul 2014 11:14:13 pm
421.crusherrSun, 3 Aug 2014 1:41:23 am
422.delange001Mon, 4 Aug 2014 9:54:43 am
423.7footgiantMon, 4 Aug 2014 11:28:09 pm
424.TerMoerkesTue, 5 Aug 2014 8:13:12 pm
425.break54Thu, 7 Aug 2014 12:49:39 pm
426.Kievit74Fri, 8 Aug 2014 12:31:29 pm
427.MissedChaoticFri, 8 Aug 2014 12:39:42 pm
428.Feles LascivaSat, 9 Aug 2014 9:49:51 am
429.rumo1Sun, 10 Aug 2014 11:07:58 pm
430.rikkebeeMon, 11 Aug 2014 11:17:35 pm
431.lilonanisebTue, 12 Aug 2014 10:22:52 am
432.snollebollekesThu, 14 Aug 2014 2:19:52 pm
433.Lighthouse777Thu, 14 Aug 2014 4:52:20 pm
434.KoenGoosFri, 15 Aug 2014 12:58:55 am
435.Willem-JanSun, 17 Aug 2014 1:44:46 am
436.Ann-HeinMon, 18 Aug 2014 10:56:14 am
437.*JoMo*Thu, 21 Aug 2014 4:19:56 pm
438.BIIG MANFri, 22 Aug 2014 10:25:20 am
439.GeoFlowersMon, 25 Aug 2014 4:32:01 pm
440.jjt007Tue, 26 Aug 2014 11:26:03 am
441.Nemo ZardixFri, 29 Aug 2014 8:57:09 pm
442.geo_evSat, 30 Aug 2014 5:23:26 pm
443.jess-axanaMon, 8 Sep 2014 3:28:08 pm
444.JvR-GeoMon, 8 Sep 2014 10:17:43 pm
445.De PlassiesTue, 9 Sep 2014 6:14:00 am
446.pietjepukkelTue, 9 Sep 2014 1:03:02 pm
447.GeohunterVBWed, 10 Sep 2014 10:00:03 pm
448.Flippie FlinkFri, 12 Sep 2014 2:57:20 pm
449.Random StrangerFri, 12 Sep 2014 6:47:54 pm
450.toverke20000Fri, 12 Sep 2014 7:15:27 pm
451.LabarcaSat, 13 Sep 2014 7:08:34 pm
452.le sudisteWed, 17 Sep 2014 9:30:57 pm
453.dibo jenoWed, 17 Sep 2014 10:10:46 pm
454.volleymikeSat, 20 Sep 2014 1:52:17 pm
455.JMolsSun, 21 Sep 2014 12:32:25 am
456.Toria crewSun, 21 Sep 2014 9:06:09 am
457.quattro4Sun, 21 Sep 2014 6:25:04 pm
458.PEKA71Tue, 23 Sep 2014 7:43:35 pm
459.Noeka & CoWed, 24 Sep 2014 10:25:19 pm
460.Kapitän Blaubär 78Thu, 25 Sep 2014 2:38:21 pm
461.verstraete-latruweThu, 25 Sep 2014 3:19:38 pm
462.MarioAnFri, 26 Sep 2014 1:08:32 pm
463.Phil-DieFri, 26 Sep 2014 10:16:20 pm
464.polderfamilySun, 28 Sep 2014 1:59:04 pm
465.Team_SteCySun, 28 Sep 2014 7:25:34 pm
466.ovvioTue, 30 Sep 2014 9:58:57 pm
467.stofkoeWed, 1 Oct 2014 3:49:49 pm
468.AnB9Thu, 2 Oct 2014 12:12:43 pm
469.Nico MozzerFri, 3 Oct 2014 7:42:38 pm
470.MaxvicSun, 5 Oct 2014 11:56:52 am
471.NicketickSun, 5 Oct 2014 3:10:38 pm
472.jobi44Sun, 5 Oct 2014 7:45:31 pm
473.Ver&LatWed, 8 Oct 2014 8:57:18 pm
474.groep bellaTue, 14 Oct 2014 10:03:44 am
475.hermjoTue, 14 Oct 2014 10:05:57 pm
476.sweetlakecityWed, 15 Oct 2014 8:20:45 pm
477.stef_anThu, 16 Oct 2014 9:41:48 pm
478.MilliMolliMon, 20 Oct 2014 2:09:42 pm
479.countryboy1971Tue, 21 Oct 2014 4:41:20 pm
480.toyskeWed, 22 Oct 2014 2:14:07 pm
481.FinduilasSat, 25 Oct 2014 10:49:08 am
482.hetseskeMon, 27 Oct 2014 11:01:36 pm
483.Lies&&TomSun, 2 Nov 2014 9:20:27 pm
484.KoempelTue, 4 Nov 2014 9:12:18 am
485.Kwak & BoemelTue, 4 Nov 2014 1:55:47 pm
486.ZandbaarsWed, 5 Nov 2014 7:14:38 pm
487.ShibakeThu, 6 Nov 2014 11:14:50 pm
488.dikkkSat, 8 Nov 2014 11:27:58 am
489.Kilroy B.Sun, 9 Nov 2014 7:56:03 pm
490.tommynoelsTue, 11 Nov 2014 9:00:36 pm
491.MiseurThu, 13 Nov 2014 8:02:08 pm
492.de froggiesThu, 13 Nov 2014 11:35:51 pm
493.pigne_arollaFri, 14 Nov 2014 11:19:39 pm
494.ikzentSat, 15 Nov 2014 3:32:25 pm
495.Witte1Sun, 16 Nov 2014 10:38:32 pm
496.mapa05Thu, 20 Nov 2014 4:03:29 pm
497.SconeloFri, 21 Nov 2014 12:58:52 am
498.gaudiumMon, 24 Nov 2014 10:02:42 pm
499.CrazyGekkoWed, 26 Nov 2014 6:36:54 pm
500.RonachThu, 27 Nov 2014 5:53:02 pm
501.laika69Thu, 27 Nov 2014 7:16:56 pm
502.casiswaryaSun, 30 Nov 2014 7:43:46 pm
503.de bossenMon, 1 Dec 2014 7:57:03 pm
504.tomkat1971Mon, 1 Dec 2014 9:23:47 pm
505.zoekbaarsFri, 5 Dec 2014 4:39:07 pm
506.MarkoLocoMon, 8 Dec 2014 10:33:01 am
507.wimmmperMon, 8 Dec 2014 2:47:57 pm
508.CruxkeSun, 14 Dec 2014 4:33:11 pm
509.destroj007Mon, 15 Dec 2014 3:38:10 pm
510.famvdpThu, 18 Dec 2014 11:42:06 am
511.galiFri, 19 Dec 2014 10:22:48 pm
512.AirsharkIISun, 21 Dec 2014 4:20:50 am
513.Hydro1980Fri, 26 Dec 2014 11:58:02 am
514.vesje49Sat, 27 Dec 2014 8:07:43 pm
515.ibuzzeTue, 30 Dec 2014 3:16:35 pm
516.els_kevin_dritoWed, 31 Dec 2014 6:01:32 pm
517.neetslevenThu, 1 Jan 2015 10:58:53 pm
518.Hammer of DoomSat, 3 Jan 2015 1:15:12 pm
519.vloerhosteskeSat, 3 Jan 2015 3:29:48 pm
520.jan972Sat, 3 Jan 2015 5:58:35 pm
521.Dolly1979Mon, 5 Jan 2015 8:46:49 pm
522.PittekesTue, 6 Jan 2015 9:51:01 pm
523.dagtrippers8486Wed, 7 Jan 2015 12:19:06 pm
524.Renrew1968Wed, 7 Jan 2015 8:23:51 pm
525.De PannekletserThu, 8 Jan 2015 10:23:34 am
526.sesamstraatploegThu, 8 Jan 2015 12:01:45 pm
527.Trientje75Thu, 8 Jan 2015 10:26:50 pm
528.De GiebelgeitjesSun, 11 Jan 2015 7:31:51 pm
529.On7dcFri, 16 Jan 2015 9:40:20 am
530.VW T2Mon, 26 Jan 2015 11:42:30 am
531.BulkieTue, 27 Jan 2015 9:50:25 am
532.samboanroSat, 31 Jan 2015 8:59:40 pm
533.JoMaLoLiSun, 8 Feb 2015 12:26:47 pm
534.Kare8384Sat, 14 Feb 2015 9:31:39 pm
535.Running SandTue, 17 Feb 2015 5:59:09 pm
536.moddercrosserWed, 18 Feb 2015 8:04:54 pm
537.Walker74Wed, 18 Feb 2015 9:51:54 pm
538.Dany65Fri, 20 Feb 2015 3:38:53 pm
539.FRAEMYSat, 21 Feb 2015 3:24:48 pm
540.duifSun, 22 Feb 2015 12:01:03 pm
541.4LinuxMon, 23 Feb 2015 7:55:39 pm
542.fr@ b.Wed, 25 Feb 2015 2:01:27 pm
543.bebergFri, 27 Feb 2015 7:12:53 pm
544.lipiboTue, 3 Mar 2015 1:23:28 pm
545.MeeLenWed, 4 Mar 2015 12:51:54 pm
546.duikelaarThu, 5 Mar 2015 7:24:37 am
547.De-ganzenhoedersThu, 5 Mar 2015 5:37:16 pm
548.Team NikstjeMon, 9 Mar 2015 7:12:12 pm
549.HeeblumkeWed, 11 Mar 2015 2:57:54 pm
550.ronniepmvwSat, 14 Mar 2015 12:13:25 am
551.AgentXLMon, 16 Mar 2015 1:23:25 pm
552.patriekskeTue, 17 Mar 2015 11:39:11 pm
553.soyoyastThu, 19 Mar 2015 1:44:41 pm
554.plimkieThu, 19 Mar 2015 6:34:27 pm
555.SecretCaveMon, 23 Mar 2015 8:02:54 pm
556.Ral&ZoonSun, 29 Mar 2015 4:38:10 pm
557.RijklandMon, 30 Mar 2015 1:42:28 am
558.gwen1810Tue, 31 Mar 2015 11:00:03 pm
559.patje40Tue, 31 Mar 2015 11:46:40 pm
560.PingolinWed, 1 Apr 2015 2:02:52 pm
561.Team JulleminaThu, 2 Apr 2015 12:43:40 pm
562.bertsmitsSat, 4 Apr 2015 6:38:08 pm
563.sauvillerMon, 6 Apr 2015 8:35:44 pm
564.PoepoeMon, 6 Apr 2015 10:03:14 pm
565.tonmar47Tue, 14 Apr 2015 10:12:44 pm
566.Mr MJWed, 15 Apr 2015 4:03:53 am
567.Calle & BakkiMon, 20 Apr 2015 11:09:04 pm
568.Team WoubeSun, 26 Apr 2015 9:16:15 pm
569.BergheboyMon, 27 Apr 2015 8:21:31 pm
570.NyxbugThu, 30 Apr 2015 4:44:40 pm
571.il imperiestroThu, 30 Apr 2015 11:45:45 pm
572.GeowiceFri, 1 May 2015 4:25:55 pm
573.Matthias999Fri, 1 May 2015 8:09:05 pm
574.WimBelgiumSun, 3 May 2015 12:15:09 pm
575.lr128247Sun, 3 May 2015 6:15:32 pm
576.wasserijsTue, 5 May 2015 8:49:37 am
577.dapastniWed, 6 May 2015 1:00:45 pm
578.WorkOut2019Sun, 10 May 2015 12:42:51 pm
579.koperenkogelFri, 15 May 2015 5:39:01 pm
580.maccesFri, 15 May 2015 9:23:57 pm
581.Bloemetje75Sat, 16 May 2015 7:53:52 am
582.IvaliseThu, 21 May 2015 11:58:44 pm
583.Jens VLMon, 25 May 2015 1:20:03 pm
584.bananiTue, 26 May 2015 1:25:19 pm
585.PlonsDGKWed, 27 May 2015 12:43:58 pm
586.jehan the walkingmanThu, 28 May 2015 2:58:36 pm
587.stakkesSat, 30 May 2015 9:20:26 pm
588.VicVonMon, 1 Jun 2015 9:31:05 pm
589.TingioTue, 2 Jun 2015 5:38:42 pm
590.pfisserThu, 4 Jun 2015 7:13:12 pm
591.TORIBEXSat, 6 Jun 2015 9:22:08 pm
592.AnSonicSun, 7 Jun 2015 5:09:44 pm
593.pyromanaTue, 9 Jun 2015 9:17:58 pm
594.JacqAnMon, 15 Jun 2015 1:34:30 pm
595.freyke82Mon, 15 Jun 2015 4:17:27 pm
596.Fi-LuTue, 16 Jun 2015 11:30:23 pm
597.WilfriedvpWed, 17 Jun 2015 10:43:48 pm
598.FastekeSun, 21 Jun 2015 11:25:52 am
599.GreetgeSun, 21 Jun 2015 2:34:17 pm
600.kwispedorisSun, 21 Jun 2015 10:30:20 pm
601.svekke_cMon, 22 Jun 2015 1:07:06 pm
602.DykaMon, 22 Jun 2015 9:44:45 pm
603.DiemerHarbersWed, 24 Jun 2015 3:35:50 pm
604.snoopyke21Sun, 28 Jun 2015 11:12:54 pm
605.rheawoefFri, 3 Jul 2015 5:38:18 pm
606.gitert4Sat, 4 Jul 2015 9:27:47 pm
607.MichelitisTue, 14 Jul 2015 12:18:21 am
608.lip007lipTue, 14 Jul 2015 11:47:27 am
609.Peter & KatrijnTue, 14 Jul 2015 1:03:00 pm
610.zottevlaaiTue, 14 Jul 2015 10:43:28 pm
611.GEOCACHTIMWed, 15 Jul 2015 2:29:27 pm
612.sentinel2004Sun, 19 Jul 2015 7:23:54 pm
613.jaelpMon, 27 Jul 2015 3:21:38 pm
614.BlackCookiesMon, 27 Jul 2015 5:22:25 pm
615.De_ClubClubMon, 27 Jul 2015 10:19:07 pm
616.klokjeTue, 28 Jul 2015 11:49:05 pm
617.Docxkes5Wed, 29 Jul 2015 10:31:32 pm
618.SibalaFri, 31 Jul 2015 9:36:44 am
619.gied54Sat, 1 Aug 2015 11:36:46 pm
620.NayampurTue, 4 Aug 2015 4:38:58 pm
621.Daf de GirafFri, 7 Aug 2015 4:33:24 pm
622.Stef & KristelSun, 9 Aug 2015 2:24:24 pm
623.florsa1717Sat, 15 Aug 2015 4:05:48 pm
624.Veerle TTue, 18 Aug 2015 4:49:07 pm
625.jon.snow@Wed, 19 Aug 2015 1:31:27 pm
626.moriske1Wed, 19 Aug 2015 11:56:15 pm
627.Jansen en JanssenMon, 24 Aug 2015 10:30:13 pm
628.saffletTue, 25 Aug 2015 3:31:58 pm
629.kipling2006Tue, 25 Aug 2015 4:53:33 pm
630.SjötWed, 26 Aug 2015 10:03:26 pm
631.DavideRebellinThu, 27 Aug 2015 11:35:17 am
632.kim2804Sat, 29 Aug 2015 4:53:00 pm
633.LambrafTue, 1 Sep 2015 11:26:02 pm
634.kurtje13Sun, 6 Sep 2015 11:48:28 am
635.HekkieSun, 6 Sep 2015 9:30:32 pm
636.Night chick&GCCANDYFri, 11 Sep 2015 7:13:46 am
637.bergenjeffryMon, 14 Sep 2015 3:18:28 am
638.elpierroMon, 14 Sep 2015 8:44:13 pm
639.reynartsThu, 17 Sep 2015 7:57:10 pm
640.botsbalSat, 19 Sep 2015 1:02:53 pm
641.Dreamteam2502Mon, 21 Sep 2015 12:03:55 pm
642.ghekiThu, 24 Sep 2015 5:27:56 pm
643.Verschueren LFri, 25 Sep 2015 8:08:36 am
644.CintaKJKSun, 27 Sep 2015 5:12:23 pm
645.modderpootjesMon, 28 Sep 2015 9:32:47 pm
646.mitch.croesWed, 30 Sep 2015 7:50:05 am
647.ellilauwMon, 5 Oct 2015 6:31:10 pm
648.BeEvyThu, 8 Oct 2015 11:07:50 am
649.M.B.E.S.Fri, 9 Oct 2015 7:35:52 pm
650.StijnRensSat, 10 Oct 2015 7:46:59 pm
651.kevertjeSun, 11 Oct 2015 7:56:12 pm
652.caoutchoucTue, 13 Oct 2015 3:21:50 pm
653.goldgrubeTue, 13 Oct 2015 3:37:34 pm
654.JackyVThu, 15 Oct 2015 8:45:28 pm
655.Hassie8720Sun, 18 Oct 2015 1:24:00 pm
656.MardetWed, 21 Oct 2015 10:04:21 pm
657.WaFiKriDiSat, 24 Oct 2015 11:21:35 pm
658.Cindy & davySun, 25 Oct 2015 10:04:13 pm
659.l0vebirdiesSun, 15 Nov 2015 6:08:08 pm
660.infinity_mcWed, 18 Nov 2015 1:36:39 am
661.roodmusThu, 19 Nov 2015 5:14:24 pm
662.team edvollegasThu, 19 Nov 2015 7:58:46 pm
663.dedamesSat, 21 Nov 2015 6:49:16 pm
664.FoezyTue, 24 Nov 2015 12:33:32 pm
665.Nettles2014Mon, 30 Nov 2015 9:38:14 am
666.lien&jorenWed, 2 Dec 2015 7:51:32 pm
667.Reynders JPFri, 4 Dec 2015 3:34:58 pm
668.The_MazeRunnerMon, 7 Dec 2015 11:36:16 am
669.Lady LinnekeTue, 8 Dec 2015 9:10:51 pm
670.ida oTue, 8 Dec 2015 9:36:24 pm
671.daborWed, 9 Dec 2015 8:15:20 pm
672.ams_eeMon, 14 Dec 2015 6:16:40 pm
673.BartjeelsjeWed, 23 Dec 2015 2:00:38 pm
674.ozzy07Wed, 23 Dec 2015 4:04:25 pm
675.MadDogJackTue, 29 Dec 2015 11:48:39 am
676.hansrnWed, 30 Dec 2015 11:42:51 pm
677.luccecThu, 31 Dec 2015 5:59:54 pm
678.GeoAraSat, 2 Jan 2016 2:49:44 pm
679.Team STVMon, 4 Jan 2016 4:05:56 pm
680.colonelbTue, 5 Jan 2016 12:21:37 pm
681.jiske56Thu, 7 Jan 2016 6:57:16 pm
682.StuiterkuikenFri, 8 Jan 2016 3:12:31 pm
683.bijthThu, 14 Jan 2016 2:39:44 pm
684.delavriesTue, 19 Jan 2016 8:04:19 pm
685.andy086Wed, 20 Jan 2016 4:50:43 pm
686.de wolliesSat, 23 Jan 2016 8:38:07 pm
687.JolieusSun, 24 Jan 2016 9:09:17 pm
688.WIGWIGWAMWAMFri, 29 Jan 2016 7:12:41 pm
689.SchanullaFri, 29 Jan 2016 8:04:16 pm
690.xalalojeFri, 29 Jan 2016 8:10:15 pm
691.pinarello43Sat, 30 Jan 2016 1:25:21 pm
692.JVMBMon, 1 Feb 2016 8:04:26 pm
693.jollyclubSat, 6 Feb 2016 12:14:05 pm
694.beverkeSat, 6 Feb 2016 1:29:07 pm
695.WiHa1106Sun, 7 Feb 2016 11:08:32 pm
696.DaCo1979Mon, 8 Feb 2016 10:27:36 pm
697.BartenEllenTue, 9 Feb 2016 7:12:01 pm
698.iTeeuwenWed, 10 Feb 2016 10:53:17 pm
699.an_en_erikSun, 14 Feb 2016 12:05:15 am
700.HarindaWed, 17 Feb 2016 10:17:28 pm
701.kris en tanjaMon, 22 Feb 2016 6:47:05 pm
702.zakagendaMon, 29 Feb 2016 7:51:40 pm
703.popfexThu, 3 Mar 2016 10:28:11 am
704.YwieFri, 4 Mar 2016 9:57:26 pm
705.AllFonsSat, 5 Mar 2016 12:28:36 pm
706.joke18Tue, 8 Mar 2016 1:51:39 pm
707.beezzzWed, 9 Mar 2016 9:55:11 pm
708.Janne & GertFri, 11 Mar 2016 2:20:25 pm
709.DatuliFri, 11 Mar 2016 3:40:12 pm
710.Team SpicySun, 13 Mar 2016 10:07:59 am
711.the_fonzyWed, 16 Mar 2016 5:37:44 pm
712.destiny01Mon, 21 Mar 2016 3:25:44 am
713.Rednax2004Wed, 30 Mar 2016 2:05:22 pm
714.nataliejacobsWed, 30 Mar 2016 9:24:07 pm
715.EveRan2013Thu, 31 Mar 2016 10:33:52 pm
716.katleenmarcoSun, 3 Apr 2016 6:24:41 pm
717.Femke59Tue, 5 Apr 2016 10:04:43 pm
718.GraatjeTue, 5 Apr 2016 10:31:00 pm
719.terpiesFri, 8 Apr 2016 8:05:19 am
720.kimeefSun, 10 Apr 2016 8:31:14 pm
721.OpaDusMon, 11 Apr 2016 6:04:08 pm
722.2PintenFri, 15 Apr 2016 10:51:21 pm
723.DaicootjeSat, 16 Apr 2016 11:52:45 am
724.michaelcon1Sun, 17 Apr 2016 7:27:55 pm
725.jan_en_lutTue, 19 Apr 2016 3:35:08 pm
726.di&woodtrapperMon, 2 May 2016 2:46:15 pm
727.TeamKnippeSun, 8 May 2016 1:19:29 pm
728.homeboyMon, 9 May 2016 9:25:32 pm
729.WilallSat, 14 May 2016 6:57:14 pm
730.2DSKSun, 15 May 2016 1:13:45 pm
731.CaracalShanSun, 22 May 2016 7:34:48 pm
732.PeeceeGeelWed, 25 May 2016 10:37:10 pm
733.buffel71Thu, 26 May 2016 12:19:45 pm
734.Cinder1981Fri, 27 May 2016 9:01:23 pm
735.SesjansWed, 8 Jun 2016 11:41:30 am
736.PeripateticiMon, 13 Jun 2016 12:16:17 am
737.de boswachterThu, 23 Jun 2016 9:22:26 am
738.Windkracht12Sun, 26 Jun 2016 12:19:06 pm
739.topzoekertjeSun, 3 Jul 2016 9:24:12 pm
740.Patrick67.Fri, 8 Jul 2016 1:15:49 am
741.KennethLaeremansSat, 9 Jul 2016 9:51:33 pm
742.bestplayer1000Sun, 10 Jul 2016 12:28:24 pm
743.Iris & HarryTue, 12 Jul 2016 6:25:14 pm
744.Spanco&KippyTue, 12 Jul 2016 9:49:25 pm
745.Team DaajtWed, 13 Jul 2016 2:10:17 pm
746.victor1oomsFri, 15 Jul 2016 1:01:26 pm
747.golodhSun, 17 Jul 2016 2:45:34 pm
748.BjernaSun, 17 Jul 2016 3:31:34 pm
749.friso923Fri, 22 Jul 2016 4:01:13 pm
750.BasOpPadFri, 22 Jul 2016 10:26:46 pm
751.remokeFri, 22 Jul 2016 11:03:13 pm
752.PulpFactoryMon, 25 Jul 2016 8:27:49 pm
753.kyaLonaSat, 6 Aug 2016 9:01:35 pm
754.gerritvanwoerkomTue, 9 Aug 2016 10:35:40 pm
755.pat2609Fri, 12 Aug 2016 8:39:07 am
756.biebieFri, 12 Aug 2016 10:18:38 am
757.Daan43Mon, 15 Aug 2016 9:47:58 am
758.johannemieSat, 20 Aug 2016 1:54:51 am
759.Lady_Sabrina_&_CoSun, 21 Aug 2016 8:09:51 pm
760.Jelle-AnneliesSun, 28 Aug 2016 10:08:12 am
761.SoemirMon, 29 Aug 2016 4:33:28 pm
762.kato3Tue, 30 Aug 2016 7:51:48 pm
763.DWX DeluxeWed, 31 Aug 2016 5:06:37 pm
764.Mathieu1979Fri, 2 Sep 2016 12:09:07 pm
765.Freek76Sun, 4 Sep 2016 2:05:22 pm
766.Aurochs1969Mon, 5 Sep 2016 12:33:12 pm
767.diatrickWed, 7 Sep 2016 9:22:10 am
768.ArrayOfEmotionsMon, 19 Sep 2016 8:10:14 pm
769.BriSan.Fri, 23 Sep 2016 5:36:12 am
770.AwesoMeowSun, 25 Sep 2016 10:40:02 am
771.dreek76Wed, 28 Sep 2016 11:48:06 am
772.Aga.Mem.NonMon, 3 Oct 2016 7:50:42 pm
773.BALTHEMARTue, 4 Oct 2016 1:51:17 pm
774.CrazyMuppetsSat, 15 Oct 2016 1:59:10 am
775.smansieSat, 15 Oct 2016 9:40:42 pm
776.tcr1978Sat, 15 Oct 2016 10:39:05 pm
777.[NBS]KoRNMon, 17 Oct 2016 8:26:11 pm
778.cach-u-crewFri, 21 Oct 2016 6:15:35 pm
779.kadeekesFri, 21 Oct 2016 9:17:38 pm
780.het_zoefkeMon, 24 Oct 2016 7:07:10 pm
781.siggi39Thu, 27 Oct 2016 9:48:44 pm
782.rikske62Sun, 30 Oct 2016 10:55:40 am
783.AdrieA3Fri, 11 Nov 2016 1:28:57 am
784.hemimaFri, 11 Nov 2016 8:43:02 pm
785.BVMJSun, 20 Nov 2016 8:48:24 pm
786.matti122Sun, 20 Nov 2016 9:14:26 pm
787.rupali01Mon, 28 Nov 2016 2:52:23 pm
788.plinMon, 28 Nov 2016 5:13:32 pm
789.filip85Wed, 30 Nov 2016 5:53:05 pm
790.zonnehoekMon, 5 Dec 2016 6:14:25 pm
791.MitijTue, 6 Dec 2016 1:02:13 pm
792.LottyThu, 22 Dec 2016 2:49:46 pm
793.Lode65Sat, 24 Dec 2016 12:16:02 am
794.LavaMotjesWed, 28 Dec 2016 7:48:26 pm